Santa Fe, NM

2:40 PM MDT on May 27, 2017 (GMT -0600)
Santa Fe Municipal

Weather History for KSAF - December, 2013

Change the Weather History Date:

Saturday, December 14, 2013

  Actual Average Record
Temperature  
Mean Temperature 29 °F -  
Max Temperature 39 °F 49 °F 59 °F (2010)
Min Temperature 19 °F 18 °F 9 °F (1999)
Degree Days  
Heating Degree Days 36    
Moisture  
Dew Point 18 °F    
Average Humidity 65    
Maximum Humidity 85    
Minimum Humidity 38    
Precipitation  
Precipitation 0.00 in - - ()
Sea Level Pressure  
Sea Level Pressure 30.30 in    
Wind  
Wind Speed 5 mph (NNW)    
Max Wind Speed 12 mph    
Max Gust Speed -    
Visibility 10 miles    
Events      
Averages and records for this station are not official NWS values.
T = Trace of Precipitation, MM = Missing Value Source: NWS Daily Summary

Daily Weather History Graph

Daily Weather History Graph

Search for Another Location

Airport or City:

Trip Planner

Search our weather history database for the weather conditions in past years. The results will help you decide how hot, cold, wet, or windy it might be!

Date:

Astronomy

Dec. 14, 2013 Rise Set
Actual Time 7:06 AM MST 4:52 PM MST
Civil Twilight 6:37 AM MST 5:20 PM MST
Nautical Twilight 6:05 AM MST 5:52 PM MST
Astronomical Twilight 5:34 AM MST 6:23 PM MST
Moon 3:12 PM MST (12/14) 4:32 AM MST (12/14)
Length of Visible Light 10h 42m
Length of Day
9h 46m
Waxing Gibbous, 94% of the Moon is Illuminated
Dec 14
Waxing Gibbous
Dec 17
Full
Dec 25
Last Quarter
Jan 1
New
Jan 7
First Quarter

Hourly Weather History & Observations

Time (MST) Temp. Windchill Dew Point Humidity Pressure Visibility Wind Dir Wind Speed Gust Speed Precip Events Conditions
12:53 AM 26.1 °F - 21.9 °F 84% 30.07 in 10.0 mi Calm Calm - N/A   Clear
1:53 AM 27.0 °F - 19.9 °F 75% 30.06 in 10.0 mi Calm Calm - N/A   Clear
2:53 AM 25.0 °F 17.1 °F 19.0 °F 78% 30.10 in 10.0 mi NW 6.9 mph - N/A   Clear
3:53 AM 26.1 °F 17.6 °F 19.0 °F 75% 30.12 in 10.0 mi North 8.1 mph - N/A   Clear
4:53 AM 21.0 °F 13.4 °F 16.0 °F 81% 30.18 in 10.0 mi North 5.8 mph - N/A   Clear
5:53 AM 21.0 °F 16.2 °F 16.0 °F 81% 30.25 in 10.0 mi North 3.5 mph - N/A   Clear
6:53 AM 19.0 °F 11.1 °F 15.1 °F 85% 30.29 in 10.0 mi North 5.8 mph - N/A   Clear
7:53 AM 23.0 °F - 17.1 °F 78% 30.33 in 10.0 mi Calm Calm - N/A   Clear
8:53 AM 27.0 °F 20.5 °F 16.0 °F 63% 30.36 in 10.0 mi NNE 5.8 mph - N/A   Clear
9:53 AM 30.0 °F 20.5 °F 16.0 °F 56% 30.38 in 10.0 mi North 11.5 mph - N/A   Clear
10:53 AM 33.1 °F 26.1 °F 16.0 °F 50% 30.37 in 10.0 mi North 8.1 mph - N/A   Clear
11:53 AM 36.0 °F 28.5 °F 15.1 °F 43% 30.33 in 10.0 mi North 10.4 mph - N/A   Clear
12:53 PM 37.9 °F 31.5 °F 15.1 °F 39% 30.30 in 10.0 mi North 9.2 mph - N/A   Clear
1:53 PM 39.0 °F 35.7 °F 15.1 °F 38% 30.29 in 10.0 mi NNW 4.6 mph - N/A   Clear
2:53 PM 37.9 °F 32.7 °F 21.0 °F 51% 30.31 in 10.0 mi WSW 6.9 mph - N/A   Clear
3:53 PM 37.0 °F 29.3 °F 19.0 °F 48% 30.32 in 10.0 mi WSW 11.5 mph - N/A   Clear
4:53 PM 33.1 °F 24.9 °F 19.0 °F 56% 30.38 in 10.0 mi WSW 10.4 mph - N/A   Clear
5:53 PM 30.9 °F 24.3 °F 19.0 °F 61% 30.38 in 10.0 mi WSW 6.9 mph - N/A   Clear
6:53 PM 28.0 °F 24.2 °F 19.0 °F 69% 30.40 in 10.0 mi NW 3.5 mph - N/A   Clear
7:53 PM 25.0 °F 16.3 °F 18.0 °F 75% 30.43 in 10.0 mi North 8.1 mph - N/A   Clear
8:53 PM 27.0 °F 19.5 °F 18.0 °F 69% 30.39 in 10.0 mi North 6.9 mph - N/A   Clear
9:53 PM 25.0 °F 20.7 °F 18.0 °F 75% 30.40 in 10.0 mi WSW 3.5 mph - N/A   Clear
10:53 PM 26.1 °F 19.4 °F 17.1 °F 69% 30.39 in 10.0 mi WNW 5.8 mph - N/A   Clear
11:53 PM 25.0 °F 19.3 °F 17.1 °F 72% 30.37 in 10.0 mi NW 4.6 mph - N/A   Clear